Showing default

EUTE 172B, 42741

Orbit data source: Space-Track

EUTE 172B, 42741 is a payload satellite owned by EutelsatSA (FR) in GEO that was launched on Thu, 01 Jun 2017 UTC via an ARIANE 5ECA launch vehicle from the French Guiana (FRGUI). Payloads include a variety of satellites, spacecraft, and rockets equipped with specific instruments for various scientific and technological missions. These include communications satellites like Starlink; space stations such as the ISS; scientific satellites like the Hubble; Earth observation satellites from companies like Planet Labs, Umbra, and HawkEye 360; GPS; miniature CubeSats for education and research; and military/defense satellites.

Not visible in the next 10 days
EUTE 172B details
Identifier
42741, 2017-029B
Orbit
GEO
Last TLE update6 hours ago
Origin
Flag of FREutelsatSA (FR / EUTE)
ManufacturerAirbus/Toulouse
MissionOperational Commercial Communications
Bus & MotorEUROSTAR 3000E, EOR
Mass3,551 kg wet, 2,951 kg dry
Launch date (UTC)
2017-06-01 (8 years ago)
Launch vehicle
ARIANE 5ECA
Launch site
French Guiana (FRGUI)
Object type
Payload
Rocket body
Debris
Shape & HBRBox + 2 Pan, 39.3 m
Radar Cross Section49.877 m², Large (>1 m²)

Expand to show TLE details & history

TLE from 6 hours ago
0 EUTE 172B
1 42741U 17029B   24340.12428463  .00000015  00000-0  00000+0 0  9995
2 42741   0.0166 276.6759 0000274 188.2465 186.2544  1.00270817 28109
Epoch: 2024-12-05T02:58Z
Definitive object data (Epoch: 2024-12-05T02:58:58.192Z)
Latitude-0.00569°
Longitude172.00069°
Altitude35,787.508 km
Speed3.075 km/s
True Right ascension19h 24m 36s
True Declination0° 00' 20"
Sunlit
Object was in daylight at TLE epoch
Visualization TLE readout
Latitude0.02732°
Longitude-94.26589°
Altitude35,786.136 km
Speed3.075 km/s
Apparent Right ascension01h 12m 51s
Apparent Declination-5° 31' 47"
Sunlit
Object is in daylight
Visualization observer readout
Local Sidereal Time07:11:04
Azimuth265.47° W
Elevation-3.205°
Doppler factor1
Orbital elements
Apogee altitude35,789.092 km
Perigee altitude35,786.781 km
Semi-major axis42,166.074 km
Eccentricity0.0000274
Inclination0.0166°
RAAN276.6759°
Arg. of periapsis188.2465°
True anomaly186.25406°
Mean anomaly186.2544°
Eccentric anomaly186.25423°
Mean motion0.25067 °/min
BSTARUnknown
Orbital period1436.16 mins
Loading historical data...
42741 neighbors
Authenticating...
Loading maneuver chart data...
Loading historical data...
Loading historical data...
Loading historical data...
Loading historical data...
Loading historical data...
Loading historical data...
Loading historical data...
Other satellites on launch #29 in the year 2017 (2017-06-01 UTC)

EUTE 172B Visibility forecast

Observer location: undefined°, undefined

EUTE 172B is not visible in the next 10 days
Span
Click to sort rows by Start time (UTC) header in descending order
Start Az.
Max El. time (UTC)
Max El. Az.
Max El.
End time (UTC)
End Az.
|